Weather History for KCWI - January, 2014

Change the Weather History Date:

Monday, January 6, 2014

  Actual Average Record
Temperature  
Mean Temperature -14 °F -  
Max Temperature -9 °F 28 °F 59 °F (2008)
Min Temperature -18 °F 13 °F -21 °F (1970)
Degree Days  
Heating Degree Days 78    
Moisture  
Dew Point -25 °F    
Average Humidity 55    
Maximum Humidity 64    
Minimum Humidity 45    
Precipitation  
Precipitation 0.00 in - - ()
Sea Level Pressure  
Sea Level Pressure 30.29 in    
Wind  
Wind Speed 21 mph (WNW)    
Max Wind Speed 30 mph    
Max Gust Speed 32 mph    
Visibility 6 miles    
Events      
Averages and records for this station are not official NWS values.
T = Trace of Precipitation, MM = Missing Value Source: NWS Daily Summary

Daily Weather History Graph

Daily Weather History Graph

Search for Another Location

Airport or City:

Trip Planner

Search our weather history database for the weather conditions in past years. The results will help you decide how hot, cold, wet, or windy it might be!

Date:

Astronomy

Jan. 06, 2014 Rise Set
Actual Time 7:28 AM CST 4:45 PM CST
Civil Twilight 6:57 AM CST 5:17 PM CST
Nautical Twilight 6:22 AM CST 5:51 PM CST
Astronomical Twilight 5:49 AM CST 6:25 PM CST
Moon 10:38 AM CST (1/6) 11:25 PM CST (1/6)
Length of Visible Light 10h 19m
Length of Day
9h 17m
Waxing Crescent, 35% of the Moon is Illuminated
Jan 6
Waxing Crescent
Jan 7
First Quarter
Jan 15
Full
Jan 23
Last Quarter
Jan 30
New

Hourly Weather History & Observations

Time (CST) Temp. Windchill Dew Point Humidity Pressure Visibility Wind Dir Wind Speed Gust Speed Precip Events Conditions
12:15 AM -11.2 °F -37.0 °F -20.2 °F 64% 30.25 in 5.0 mi NW 20.7 mph 31.1 mph N/A   Clear
12:35 AM -11.2 °F -35.2 °F -22.0 °F 59% 30.24 in 10.0 mi NW 17.3 mph 23.0 mph N/A   Clear
12:55 AM -11.2 °F -37.0 °F -22.0 °F 59% 30.24 in 6.0 mi WNW 20.7 mph - N/A   Scattered Clouds
1:15 AM - - - N/A% 30.25 in 4.0 mi WNW 19.6 mph - N/A   Mostly Cloudy
1:35 AM -13.0 °F -38.2 °F -23.8 °F 59% 30.25 in 9.0 mi WNW 18.4 mph 24.2 mph N/A   Scattered Clouds
1:55 AM -14.8 °F -42.4 °F -23.8 °F 64% 30.25 in 10.0 mi WNW 21.9 mph 27.6 mph N/A   Clear
2:15 AM -14.8 °F -40.5 °F -23.8 °F 64% 30.27 in 9.0 mi WNW 18.4 mph 25.3 mph N/A   Clear
2:35 AM -14.8 °F -42.9 °F -23.8 °F 64% 30.27 in 4.0 mi WNW 23.0 mph 28.8 mph N/A   Scattered Clouds
2:55 AM -14.8 °F -41.8 °F -23.8 °F 64% 30.26 in 10.0 mi WNW 20.7 mph - N/A   Scattered Clouds
3:15 AM -14.8 °F -42.9 °F -25.6 °F 58% 30.27 in 10.0 mi WNW 23.0 mph - N/A   Clear
3:35 AM -14.8 °F -42.9 °F -29.2 °F 48% 30.27 in 8.0 mi WNW 23.0 mph 29.9 mph N/A   Clear
3:55 AM -14.8 °F -41.2 °F - N/A% 30.26 in 9.0 mi WNW 19.6 mph 27.6 mph N/A   Mostly Cloudy
4:15 AM -16.6 °F -45.3 °F - N/A% 30.26 in 10.0 mi WNW 23.0 mph 26.5 mph N/A   Mostly Cloudy
4:35 AM -16.6 °F -45.3 °F -29.2 °F 53% 30.27 in 3.0 mi WNW 23.0 mph - N/A   Mostly Cloudy
4:55 AM -16.6 °F -47.4 °F -29.2 °F 53% 30.27 in 2.5 mi WNW 27.6 mph - N/A   Mostly Cloudy
5:15 AM -16.6 °F -48.4 °F -29.2 °F 53% 30.28 in 4.0 mi WNW 29.9 mph - N/A   Mostly Cloudy
5:35 AM -16.6 °F -44.8 °F -29.2 °F 53% 30.29 in 7.0 mi WNW 21.9 mph - N/A   Mostly Cloudy
5:55 AM -16.6 °F -45.3 °F -27.4 °F 58% 30.29 in 5.0 mi WNW 23.0 mph - N/A   Overcast
6:15 AM -16.6 °F -47.4 °F -29.2 °F 53% 30.29 in 3.0 mi WNW 27.6 mph 31.1 mph N/A   Mostly Cloudy
6:35 AM -16.6 °F -45.9 °F - N/A% 30.29 in 5.0 mi WNW 24.2 mph - N/A   Partly Cloudy
6:55 AM -16.6 °F -42.9 °F - N/A% 30.29 in 10.0 mi WNW 18.4 mph 25.3 mph N/A   Clear
7:15 AM -16.6 °F -46.4 °F -27.4 °F 58% 30.30 in 9.0 mi WNW 25.3 mph 31.1 mph N/A   Partly Cloudy
7:35 AM -18.4 °F -45.9 °F - N/A% 30.28 in 7.0 mi WNW 19.6 mph - N/A   Clear
7:55 AM -18.4 °F -47.7 °F - N/A% 30.29 in 9.0 mi WNW 23.0 mph - N/A   Clear
8:15 AM -18.4 °F -48.8 °F - N/A% 30.30 in 3.0 mi WNW 25.3 mph 29.9 mph N/A   Clear
8:35 AM -16.6 °F -45.3 °F -29.2 °F 53% 30.31 in 3.0 mi WNW 23.0 mph - N/A   Clear
8:55 AM -16.6 °F -44.8 °F - N/A% 30.31 in 3.0 mi WNW 21.9 mph 29.9 mph N/A   Clear
9:15 AM -16.6 °F -46.4 °F -29.2 °F 53% 30.32 in 2.5 mi WNW 25.3 mph - N/A   Clear
9:35 AM -16.6 °F -45.9 °F -29.2 °F 53% 30.32 in 7.0 mi WNW 24.2 mph 29.9 mph N/A   Clear
9:55 AM -16.6 °F -45.9 °F -29.2 °F 53% 30.31 in 4.0 mi WNW 24.2 mph 27.6 mph N/A   Clear
10:15 AM -16.6 °F -46.4 °F -29.2 °F 53% 30.31 in 2.5 mi WNW 25.3 mph - N/A   Clear
10:35 AM -14.8 °F -43.5 °F -27.4 °F 53% 30.32 in 2.5 mi WNW 24.2 mph 28.8 mph N/A   Partly Cloudy
10:55 AM -14.8 °F -45.0 °F -27.4 °F 53% 30.32 in 2.0 mi WNW 27.6 mph - N/A   Scattered Clouds
11:15 AM -14.8 °F -44.0 °F -27.4 °F 53% 30.31 in 1.8 mi WNW 25.3 mph - N/A   Clear
11:35 AM -14.8 °F -43.5 °F -27.4 °F 53% 30.30 in 2.5 mi WNW 24.2 mph - N/A   Clear
11:55 AM -13.0 °F -42.6 °F -25.6 °F 53% 30.30 in 1.8 mi WNW 27.6 mph 32.2 mph N/A   Clear
12:15 PM -13.0 °F -41.1 °F -25.6 °F 53% 30.30 in 3.0 mi WNW 24.2 mph - N/A   Clear
12:35 PM -11.2 °F -37.6 °F -25.6 °F 49% 30.29 in 2.5 mi WNW 21.9 mph - N/A   Clear
12:55 PM -11.2 °F -39.2 °F -25.6 °F 49% 30.28 in 3.0 mi WNW 25.3 mph - N/A   Partly Cloudy
1:15 PM -11.2 °F -39.7 °F -25.6 °F 49% 30.29 in 2.0 mi WNW 26.5 mph - N/A   Mostly Cloudy
1:35 PM -11.2 °F -38.2 °F -23.8 °F 54% 30.29 in 2.5 mi WNW 23.0 mph - N/A   Scattered Clouds
1:55 PM -9.4 °F -36.8 °F -25.6 °F 45% 30.29 in 3.0 mi WNW 25.3 mph 29.9 mph N/A   Scattered Clouds
2:15 PM -9.4 °F -36.8 °F -23.8 °F 49% 30.28 in 2.5 mi West 25.3 mph 29.9 mph N/A   Scattered Clouds
2:35 PM -9.4 °F -36.3 °F -23.8 °F 49% 30.30 in 3.0 mi West 24.2 mph 28.8 mph N/A   Mostly Cloudy
2:55 PM -9.4 °F -36.8 °F -23.8 °F 49% 30.30 in 1.8 mi West 25.3 mph 32.2 mph N/A   Mostly Cloudy
3:15 PM -9.4 °F -36.3 °F -23.8 °F 49% 30.30 in 3.0 mi West 24.2 mph 28.8 mph N/A   Mostly Cloudy
3:35 PM -9.4 °F -36.8 °F -23.8 °F 49% 30.30 in 2.5 mi WNW 25.3 mph - N/A   Scattered Clouds
3:55 PM -9.4 °F -35.8 °F -23.8 °F 49% 30.31 in 4.0 mi West 23.0 mph - N/A   Scattered Clouds
4:15 PM -9.4 °F -36.3 °F -22.0 °F 54% 30.31 in 6.0 mi West 24.2 mph - N/A   Partly Cloudy
4:35 PM -9.4 °F -34.7 °F -20.2 °F 59% 30.30 in 8.0 mi West 20.7 mph - N/A   Partly Cloudy
4:55 PM -9.4 °F -34.7 °F -23.8 °F 49% 30.30 in 8.0 mi West 20.7 mph 28.8 mph N/A   Mostly Cloudy
5:15 PM -9.4 °F -34.7 °F -23.8 °F 49% 30.30 in 10.0 mi West 20.7 mph - N/A   Partly Cloudy
5:35 PM -9.4 °F -32.8 °F -23.8 °F 49% 30.30 in 10.0 mi West 17.3 mph - N/A   Clear
5:55 PM -9.4 °F -32.1 °F -23.8 °F 49% 30.30 in 10.0 mi West 16.1 mph - N/A   Clear
6:15 PM -9.4 °F -32.1 °F -23.8 °F 49% 30.31 in 10.0 mi West 16.1 mph - N/A   Clear
6:35 PM -9.4 °F -31.4 °F -22.0 °F 54% 30.31 in 10.0 mi West 15.0 mph - N/A   Clear
6:55 PM -11.2 °F -32.9 °F -22.0 °F 59% 30.30 in 10.0 mi West 13.8 mph - N/A   Clear
7:15 PM -11.2 °F -32.9 °F -23.8 °F 54% 30.31 in 10.0 mi West 13.8 mph - N/A   Clear
7:35 PM -11.2 °F -32.1 °F -23.8 °F 54% 30.31 in 10.0 mi West 12.7 mph - N/A   Clear
7:55 PM -11.2 °F -32.1 °F -23.8 °F 54% 30.31 in 10.0 mi West 12.7 mph - N/A   Clear
8:15 PM -11.2 °F -32.1 °F -23.8 °F 54% 30.30 in 10.0 mi West 12.7 mph - N/A   Clear
8:35 PM -11.2 °F -31.1 °F -22.0 °F 59% 30.31 in 10.0 mi West 11.5 mph - N/A   Clear
8:55 PM -11.2 °F -31.1 °F -20.2 °F 64% 30.30 in 10.0 mi West 11.5 mph - N/A   Clear
9:15 PM -11.2 °F -30.1 °F -23.8 °F 54% 30.29 in 10.0 mi West 10.4 mph - N/A   Clear
9:35 PM -11.2 °F -30.1 °F -22.0 °F 59% 30.30 in 10.0 mi West 10.4 mph - N/A   Clear
9:55 PM -11.2 °F -30.1 °F -22.0 °F 59% 30.29 in 10.0 mi West 10.4 mph - N/A   Clear
10:15 PM -11.2 °F -29.0 °F -23.8 °F 54% 30.28 in 10.0 mi West 9.2 mph - N/A   Clear
10:35 PM -11.2 °F -31.1 °F -20.2 °F 64% 30.29 in 10.0 mi West 11.5 mph - N/A   Clear
10:55 PM -11.2 °F -32.1 °F -22.0 °F 59% 30.30 in 10.0 mi West 12.7 mph - N/A   Clear
11:15 PM -11.2 °F -29.0 °F -22.0 °F 59% 30.29 in 10.0 mi West 9.2 mph - N/A   Clear
11:35 PM -11.2 °F -30.1 °F -22.0 °F 59% 30.28 in 10.0 mi West 10.4 mph - N/A   Clear
11:55 PM -11.2 °F -31.1 °F -20.2 °F 64% 30.28 in 10.0 mi WNW 11.5 mph - N/A   Clear